Weather History for KMEI - January, 2013

Change the Weather History Date:

Thursday, January 10, 2013

  Actual Average Record
Temperature  
Mean Temperature 67 °F 44 °F  
Max Temperature 72 °F 56 °F 83 °F (1949)
Min Temperature 62 °F 33 °F 6 °F (1962)
Degree Days  
Heating Degree Days 0 21  
Month to date heating degree days 176 203  
Since 1 July heating degree days 1132 1211  
Cooling Degree Days 2 0  
Month to date cooling degree days 2 0  
Year to date cooling degree days 2 0  
Growing Degree Days 14 (Base 50)    
Moisture  
Dew Point 64 °F    
Average Humidity 90    
Maximum Humidity 100    
Minimum Humidity 79    
Precipitation  
Precipitation 0.95 in 0.16 in 2.32 in (1922)
Month to date precipitation 2.97 1.43  
Year to date precipitation 2.97 1.43  
Sea Level Pressure  
Sea Level Pressure 30.14 in    
Wind  
Wind Speed 10 mph (SSE)    
Max Wind Speed 36 mph    
Max Gust Speed 46 mph    
Visibility 7 miles    
Events Fog , Rain    
T = Trace of Precipitation, MM = Missing Value Source: NWS Daily Summary

Daily Weather History Graph

Daily Weather History Graph

Search for Another Location

Airport or City:

Trip Planner

Search our weather history database for the weather conditions in past years. The results will help you decide how hot, cold, wet, or windy it might be!

Date:

Astronomy

Jan. 10, 2013 Rise Set
Actual Time 6:57 AM CST 5:08 PM CST
Civil Twilight 6:30 AM CST 5:35 PM CST
Nautical Twilight 6:00 AM CST 6:05 PM CST
Astronomical Twilight 5:30 AM CST 6:35 PM CST
Moon 5:37 AM CST (1/10) 4:15 PM CST (1/10)
Length of Visible Light 11h 04m
Length of Day
10h 11m
Waning Crescent, 2% of the Moon is Illuminated
Jan 10
Waning Crescent
Jan 11
New
Jan 18
First Quarter
Jan 26
Full
Feb 3
Last Quarter

Hourly Weather History & Observations

Time (CST) Temp. Dew Point Humidity Pressure Visibility Wind Dir Wind Speed Gust Speed Precip Events Conditions
12:58 AM 63.0 °F 62.1 °F 97% 30.25 in 6.0 mi SE 4.6 mph - N/A   Overcast
1:58 AM 62.6 °F 62.6 °F 100% 30.24 in 5.0 mi SE 5.8 mph - N/A   Overcast
2:58 AM 63.0 °F 63.0 °F 100% 30.22 in 4.0 mi ESE 6.9 mph - N/A   Overcast
3:58 AM 63.0 °F 63.0 °F 100% 30.20 in 4.0 mi ESE 4.6 mph - N/A   Overcast
4:39 AM 62.6 °F 62.6 °F 100% 30.19 in 2.5 mi SE 6.9 mph - N/A   Overcast
4:58 AM 63.0 °F 63.0 °F 100% 30.18 in 2.5 mi ESE 4.6 mph - N/A   Overcast
5:05 AM 62.6 °F 62.6 °F 100% 30.19 in 3.0 mi ESE 4.6 mph - N/A   Overcast
5:58 AM 64.4 °F 62.6 °F 94% 30.18 in 4.0 mi SE 4.6 mph - N/A   Overcast
6:58 AM 64.0 °F 64.0 °F 100% 30.20 in 4.0 mi SE 4.6 mph - N/A   Overcast
7:58 AM 66.0 °F 64.9 °F 96% 30.23 in 5.0 mi SE 8.1 mph - N/A   Overcast
8:30 AM 66.2 °F 64.4 °F 94% 30.22 in 7.0 mi SE 6.9 mph - N/A   Overcast
8:49 AM 66.2 °F 64.4 °F 94% 30.22 in 7.0 mi SE 8.1 mph - N/A   Overcast
8:58 AM 66.9 °F 64.9 °F 93% 30.22 in 7.0 mi SE 8.1 mph - N/A   Overcast
9:07 AM 66.2 °F 64.4 °F 94% 30.22 in 7.0 mi SE 8.1 mph - N/A   Overcast
9:58 AM 68.0 °F 64.9 °F 90% 30.22 in 10.0 mi SSE 15.0 mph 20.7 mph N/A   Overcast
10:58 AM 69.1 °F 66.0 °F 90% 30.20 in 10.0 mi SSE 16.1 mph 19.6 mph N/A   Overcast
11:58 AM 72.0 °F 66.0 °F 81% 30.15 in 10.0 mi SE 17.3 mph 26.5 mph N/A   Scattered Clouds
12:58 PM 72.0 °F 64.9 °F 78% 30.15 in 10.0 mi SSE 13.8 mph 21.9 mph N/A   Mostly Cloudy
1:13 PM 71.6 °F 64.4 °F 78% 30.14 in 10.0 mi SSE 15.0 mph 21.9 mph N/A   Mostly Cloudy
1:58 PM 72.0 °F 64.9 °F 78% 30.12 in 10.0 mi SSE 11.5 mph 20.7 mph N/A   Mostly Cloudy
2:30 PM 69.8 °F 66.2 °F 88% 30.13 in 2.0 mi South 12.7 mph - 0.02 in Rain Heavy Rain
2:58 PM 68.0 °F 66.0 °F 93% 30.13 in 2.0 mi South 9.2 mph 21.9 mph 0.16 in   Overcast
3:00 PM 68.0 °F 66.2 °F 94% 30.14 in 10.0 mi South 10.4 mph - N/A   Overcast
3:58 PM 68.0 °F 66.0 °F 93% 30.12 in 3.0 mi SSE 12.7 mph - 0.04 in Rain Light Rain
4:10 PM 66.2 °F 66.2 °F 100% 30.12 in 2.0 mi SSE 17.3 mph 24.2 mph 0.05 in Rain Heavy Rain
4:25 PM 66.2 °F 64.4 °F 94% 30.14 in 0.5 mi South 20.7 mph 28.8 mph 0.34 in Fog , Rain Heavy Rain
4:33 PM 66.2 °F 64.4 °F 94% 30.14 in 1.0 mi South 13.8 mph - 0.54 in Rain Heavy Rain
4:42 PM 64.4 °F 62.6 °F 94% 30.14 in 3.0 mi South 12.7 mph - 0.60 in Rain Heavy Rain
4:58 PM 64.0 °F 62.1 °F 93% 30.06 in 5.0 mi ESE 20.7 mph 25.3 mph 0.66 in Rain Rain
5:01 PM 64.4 °F 62.6 °F 94% 30.05 in 5.0 mi ESE 20.7 mph 27.6 mph 0.01 in Rain Rain
5:58 PM 66.9 °F 64.9 °F 93% 30.00 in 10.0 mi ESE 18.4 mph 34.5 mph 0.09 in   Partly Cloudy
6:58 PM 66.9 °F 64.9 °F 93% 30.02 in 10.0 mi South 10.4 mph - N/A   Mostly Cloudy
7:58 PM 66.9 °F 64.0 °F 90% 30.03 in 10.0 mi South 10.4 mph - N/A   Overcast
8:34 PM 66.2 °F 64.4 °F 94% 30.03 in 10.0 mi South 9.2 mph - N/A   Overcast
8:58 PM 64.9 °F 64.0 °F 97% 30.04 in 10.0 mi South 6.9 mph - N/A   Overcast
9:58 PM 64.9 °F 64.0 °F 97% 30.06 in 10.0 mi South 12.7 mph - N/A   Mostly Cloudy
10:58 PM 64.9 °F 63.0 °F 93% 30.07 in 10.0 mi South 9.2 mph - N/A   Overcast
11:08 PM 64.4 °F 62.6 °F 94% 30.08 in 10.0 mi South 11.5 mph - N/A   Overcast
11:58 PM 64.0 °F 62.1 °F 93% 30.08 in 10.0 mi South 11.5 mph - N/A   Overcast